KOREASAT 6

Last updated on Thu Jul 03 2025 00:02:45 GMT+0000 (Coordinated Universal Time)

1 37265U 10070B 25183.47044056 -.00000105 00000+0 00000+0 0 9995 2 37265 0.0174 37.7411 0002064 73.5867 138.6555 1.00271726 53263
UTC large
Height (km)
Speed (km/s)
/
Latitude / Longitude
Inclination (degrees)
Orbital Period (minutes)
Azimuth
Elevation
Range (km)
Doppler Factor

Next 0 passes for location: London (51.5072 / 0.1276)

Sorry there are no passes over London.